[[{"header":{"parameterUnit":"m.s-1","parameterCategory":1,"la1":30.2991,"la2":30.254,"lo1":-89.0895,"lo2":-89.0444,"dy":0.0017,"dx":0.0017,"nx":28,"ny":28,"refTime":"2024-03-22T21:00:00:Z","depth":0,"parameterNumber":2,"parameterNumberName":"U-component_of_WINDS"},"data":[0,0,0,0,0,0,0,0,0,0,0,0,0,0,0,0,0,0,0,0,0,0,0,0,0,0,0,0,0,0,0,0,0,0,0,0,0,0,0,0,0,0,0,0,0,0,0,0,0,0,0,0,0,0,0,0,0,0,0.505,0.505,0,0.5002,0.5001,0.5001,0.4988,0.4988,0.4989,0.4989,0.4933,0.4932,0.493,0,0,0,0,0,0,0,0,0,0,0,0,0,0.5126,0.5125,0.505,0.505,0.5049,0.5002,0.5001,0.5001,0.4988,0.4988,0.4989,0.4989,0.4934,0.4932,0.493,0,0,0,0,0,0,0,0,0,0,0,0,0,0.5087,0.5124,0.5051,0.5037,0.5036,0.5002,0.5001,0.5001,0.4988,0.4988,0.4989,0.4989,0.4935,0.4932,0.4929,0.4904,0,0,0.4921,0.492,0,0,0,0,0,0,0,0,0.5089,0.5084,0.504,0.5038,0.5036,0.5002,0.5008,0.4968,0.4988,0.5006,0.4989,0.4989,0.4955,0.4951,0.4941,0.4901,0.4899,0.4921,0.492,0.4918,0.4918,0,0,0,0,0,0,0,0.5092,0.5086,0.5031,0.5039,0.5037,0.5032,0.5027,0.5,0.4978,0.5004,0.5003,0.4998,0.4954,0.4943,0.4939,0.4898,0.4921,0.4919,0.4917,0.4916,0.4835,0.4835,0,0,0,0,0,0,0.5098,0.5088,0.5033,0.503,0.5064,0.503,0.5024,0.5012,0.4979,0.4974,0.4998,0.4998,0.4948,0.4942,0.4937,0.4906,0.4918,0.4916,0.4914,0.4836,0.4835,0.4834,0,0,0,0,0,0,0.5099,0.5093,0.5035,0.5059,0.5051,0.5028,0.5015,0.5011,0.5,0.4974,0.4969,0.4991,0.4948,0.4941,0.4913,0.4904,0.4915,0.4912,0.4836,0.4835,0.4835,0.4842,0,0,0,0,0,0,0.5101,0.5093,0.5085,0.5059,0.505,0.5013,0.5014,0.501,0.4996,0.4996,0.4966,0.4962,0.4948,0.4917,0.491,0.49,0.491,0.4837,0.4836,0.4835,0.4843,0.4842,0.4841,0,0,0,0,0,0.5104,0.5088,0.5085,0.5078,0.5039,0.5012,0.5007,0.4993,0.4996,0.4986,0.4969,0.4963,0.4905,0.4914,0.4906,0.4895,0.4838,0.4836,0.4835,0.4843,0.4842,0.4841,0,0,0,0,0,0,0.5112,0.5084,0.508,0.5055,0.5037,0.501,0.4998,0.4992,0.4971,0.4971,0.4952,0.4946,0.4919,0.4904,0.4914,0.4869,0.4871,0.4868,0.488,0.4878,0.4878,0.4882,0.4908,0,0,0,0,0,0.5111,0.5093,0.5069,0.5049,0.504,0.5021,0.5008,0.4999,0.4978,0.497,0.4951,0.4929,0.4906,0.4891,0.4868,0.484,0.4833,0.4828,0.4827,0.4827,0.4825,0.4808,0.4806,0.483,0.483,0.483,0,0,0.5108,0.5091,0.508,0.505,0.5035,0.5015,0.5014,0.4993,0.4978,0.4966,0.4939,0.4924,0.4898,0.487,0.4856,0.4856,0.4816,0.4825,0.4825,0.4823,0.4807,0.4804,0.4802,0.4829,0.4829,0.4829,0,0,0.5093,0.5079,0.5061,0.5045,0.5022,0.501,0.5005,0.498,0.497,0.4943,0.4933,0.4914,0.4875,0.4857,0.4843,0.4821,0.4814,0.4814,0.4809,0.4793,0.4791,0.479,0.4782,0.4779,0.4811,0.4811,0.4811,0,0.5092,0.5065,0.5052,0.5032,0.5019,0.5008,0.4989,0.4974,0.4944,0.4934,0.4935,0.4886,0.4868,0.4835,0.483,0.4819,0.4812,0.4817,0.4793,0.4791,0.4789,0.4782,0.4779,0.4812,0.4812,0.4812,0.4811,0,0.5065,0.5046,0.5034,0.5007,0.4992,0.4973,0.4955,0.4941,0.4933,0.4919,0.4891,0.4869,0.4842,0.4833,0.4824,0.4799,0.48,0.4797,0.4799,0.4787,0.478,0.4777,0.4812,0.4812,0.4812,0.4812,0,0,0.5054,0.5021,0.5017,0.5005,0.4979,0.4963,0.4942,0.4917,0.4906,0.4885,0.4866,0.4833,0.4831,0.4815,0.4803,0.4789,0.4774,0.4788,0.4787,0.4787,0.4744,0.4747,0.4744,0.4769,0.4768,0.4767,0.4747,0,0.5037,0.5003,0.499,0.4961,0.4942,0.4932,0.4913,0.4894,0.488,0.4861,0.4845,0.4823,0.4821,0.4811,0.4797,0.4779,0.4765,0.478,0.475,0.4749,0.4758,0.474,0.4743,0.4724,0.4744,0.4743,0.4743,0,0.5012,0.4994,0.4964,0.494,0.4931,0.4916,0.4892,0.4874,0.4851,0.4842,0.4825,0.4814,0.479,0.4793,0.4759,0.477,0.4756,0.4745,0.4744,0.4741,0.4746,0.4737,0.4718,0.4716,0.4738,0.4738,0.4739,0,0.5009,0.4975,0.4953,0.4943,0.4914,0.4903,0.489,0.4868,0.4854,0.4833,0.4823,0.4798,0.4784,0.4764,0.4747,0.475,0.4714,0.4716,0.4705,0.4705,0.4698,0.4699,0.4678,0.4689,0.4689,0.4689,0.4689,0,0.4991,0.4973,0.4951,0.4938,0.4916,0.4901,0.488,0.4866,0.4846,0.4828,0.4816,0.4799,0.4776,0.4756,0.4741,0.4715,0.4709,0.47,0.4696,0.4701,0.4703,0.4693,0.4694,0.4688,0.4688,0.4688,0.4688,0,0.4984,0.4968,0.4944,0.4919,0.4912,0.4898,0.4875,0.4861,0.4846,0.4824,0.4817,0.4794,0.4769,0.475,0.4716,0.4707,0.4679,0.4675,0.4688,0.4686,0.4677,0.4678,0.4649,0.4644,0.4658,0.4658,0.4658,0,0.4974,0.496,0.4934,0.4923,0.4911,0.4891,0.4878,0.4861,0.4846,0.4819,0.4808,0.4782,0.4762,0.4722,0.4701,0.4675,0.467,0.4662,0.4666,0.4672,0.4671,0.4672,0.467,0.4661,0.4661,0.4661,0.4661,0,0.4958,0.4952,0.4933,0.4912,0.4897,0.4879,0.486,0.485,0.483,0.4814,0.479,0.4774,0.4741,0.4715,0.4688,0.4672,0.4663,0.466,0.4656,0.4662,0.467,0.4666,0.4687,0.4661,0.4661,0.4661,0.4661,0.4661,0.495,0.4937,0.4917,0.4897,0.4882,0.4865,0.485,0.4835,0.4815,0.4789,0.4779,0.4754,0.473,0.4692,0.4676,0.4655,0.4654,0.4649,0.4647,0.4646,0.4647,0.4673,0.4649,0.4649,0.4649,0.4649,0.4649,0,0.4934,0.4921,0.4903,0.4878,0.4862,0.4857,0.4836,0.4822,0.4801,0.478,0.4761,0.4732,0.4707,0.4685,0.4658,0.4645,0.4641,0.4639,0.464,0.4637,0.4649,0.4655,0.4644,0.4644,0.4644,0.4644,0.4644,0.4644,0.4924,0.4903,0.4893,0.4864,0.485,0.4827,0.4816,0.4799,0.4783,0.4753,0.4733,0.4719,0.4697,0.4669,0.4646,0.4639,0.463,0.463,0.4622,0.4635,0.4636,0.4636,0.4642,0.4628,0.4628,0.4612,0.4612,0.4611]},{"header":{"parameterUnit":"m.s-1","parameterCategory":1,"la1":30.2991,"la2":30.254,"lo1":-89.0895,"lo2":-89.0444,"dy":0.0017,"dx":0.0017,"nx":28,"ny":28,"refTime":"2024-03-22T21:00:00:Z","depth":0,"parameterNumber":3,"parameterNumberName":"V-component_of_WINDS"},"data":[0,0,0,0,0,0,0,0,0,0,0,0,0,0,0,0,0,0,0,0,0,0,0,0,0,0,0,0,0,0,0,0,0,0,0,0,0,0,0,0,0,0,0,0,0,0,0,0,0,0,0,0,0,0,0,0,0,0,2.1024,2.1024,0,2.1038,2.1038,2.1038,2.1083,2.1084,2.1085,2.1086,2.1097,2.1097,2.1096,0,0,0,0,0,0,0,0,0,0,0,0,0,2.1034,2.1033,2.1024,2.1024,2.1024,2.1038,2.1038,2.1038,2.1083,2.1084,2.1086,2.1087,2.1097,2.1097,2.1096,0,0,0,0,0,0,0,0,0,0,0,0,0,2.1037,2.1033,2.1024,2.1048,2.1051,2.1038,2.1038,2.1038,2.1083,2.1084,2.1086,2.1087,2.1098,2.1097,2.1096,2.1059,0,0,2.1093,2.1092,0,0,0,0,0,0,0,0,2.1036,2.1036,2.1045,2.1047,2.1049,2.106,2.1045,2.1045,2.1082,2.107,2.1086,2.1088,2.1083,2.1084,2.1083,2.1059,2.106,2.1093,2.1092,2.1092,2.1091,0,0,0,0,0,0,0,2.1036,2.1036,2.1029,2.1045,2.1047,2.1058,2.106,2.1045,2.1068,2.1072,2.1075,2.1076,2.1085,2.1084,2.1083,2.106,2.1093,2.1092,2.1091,2.1091,2.1007,2.1006,0,0,0,0,0,0,2.1033,2.1035,2.1029,2.103,2.1047,2.1056,2.1059,2.1055,2.1068,2.1072,2.1075,2.1078,2.1085,2.1085,2.1084,2.1042,2.1092,2.1091,2.109,2.1009,2.1007,2.1005,0,0,0,0,0,0,2.1033,2.1032,2.1028,2.1033,2.1034,2.1055,2.105,2.1055,2.1053,2.1071,2.1075,2.107,2.1086,2.1085,2.1065,2.1043,2.109,2.1089,2.1011,2.1008,2.1006,2.0958,0,0,0,0,0,0,2.1033,2.1032,2.1018,2.1033,2.1033,2.101,2.1049,2.1054,2.1052,2.1057,2.1067,2.107,2.1087,2.1066,2.1064,2.1043,2.1088,2.1013,2.101,2.1007,2.0961,2.0954,2.0948,0,0,0,0,0,2.1033,2.1003,2.1017,2.1016,2.1017,2.1008,2.1009,2.103,2.105,2.1037,2.1048,2.107,2.1046,2.1064,2.1062,2.104,2.1014,2.1011,2.1007,2.0964,2.0955,2.0948,0,0,0,0,0,0,2.0984,2.1006,2.1022,2.0996,2.1,2.1016,2.1,2.1019,2.1017,2.1021,2.1046,2.1048,2.1024,2.103,2.105,2.1005,2.1034,2.103,2.1002,2.0994,2.0987,2.0986,2.1088,0,0,0,0,0,2.0971,2.0963,2.0981,2.0957,2.0958,2.0978,2.0975,2.0991,2.0996,2.0998,2.1008,2.1011,2.1004,2.0999,2.0994,2.0962,2.0965,2.0946,2.0939,2.0933,2.0929,2.0913,2.0905,2.0993,2.0993,2.0993,0,0,2.0942,2.0953,2.0946,2.0947,2.0953,2.0943,2.098,2.0968,2.096,2.0996,2.0978,2.0985,2.099,2.0964,2.0953,2.0968,2.0906,2.0929,2.0924,2.0923,2.0909,2.09,2.0893,2.0991,2.0991,2.0992,0,0,2.0886,2.0893,2.0874,2.0878,2.0886,2.09,2.0895,2.0909,2.0915,2.0898,2.0924,2.0915,2.0903,2.0906,2.0906,2.0851,2.0871,2.0848,2.0812,2.0796,2.0789,2.0783,2.0764,2.0756,2.0844,2.0844,2.0844,0,2.0849,2.0837,2.0861,2.0848,2.0847,2.088,2.086,2.0863,2.0868,2.0867,2.0884,2.087,2.0876,2.0851,2.0838,2.0836,2.0831,2.0847,2.0789,2.0783,2.0777,2.0759,2.0752,2.0841,2.0842,2.0842,2.0842,0,2.0791,2.0782,2.0765,2.0771,2.0768,2.0752,2.0773,2.0767,2.0783,2.0795,2.0777,2.0785,2.0782,2.0778,2.0793,2.0755,2.0764,2.0784,2.0814,2.0766,2.0749,2.0742,2.0837,2.0838,2.0839,2.084,0,0,2.0704,2.0724,2.0717,2.0721,2.0732,2.0725,2.0709,2.0708,2.0703,2.0705,2.0693,2.0682,2.0701,2.0701,2.0717,2.0702,2.0659,2.0725,2.0725,2.0712,2.0618,2.0603,2.0594,2.0672,2.0671,2.067,2.0617,0,2.065,2.0627,2.0648,2.062,2.0611,2.0643,2.0629,2.0634,2.0645,2.0639,2.065,2.0642,2.0668,2.0668,2.0656,2.0667,2.064,2.0671,2.066,2.0659,2.0658,2.0585,2.0569,2.0519,2.0611,2.061,2.0609,0,2.0585,2.0586,2.0557,2.057,2.0568,2.0555,2.0556,2.055,2.0556,2.0565,2.0565,2.0585,2.057,2.0599,2.0579,2.0599,2.0596,2.0601,2.0599,2.0599,2.0631,2.0583,2.0504,2.0496,2.0599,2.06,2.06,0,2.0524,2.0518,2.05,2.0502,2.0517,2.0508,2.0514,2.0522,2.0519,2.052,2.0518,2.0516,2.0515,2.0513,2.0531,2.055,2.0508,2.0539,2.0515,2.0514,2.0504,2.0505,2.0423,2.0502,2.0502,2.0502,2.0502,0,2.0462,2.0443,2.0473,2.0462,2.0442,2.0466,2.0445,2.0454,2.0461,2.0452,2.0478,2.0469,2.0494,2.0486,2.0501,2.0482,2.0481,2.0487,2.0491,2.0485,2.0484,2.0483,2.0487,2.05,2.0501,2.0501,2.0502,0,2.0391,2.0411,2.0393,2.041,2.0413,2.0397,2.0411,2.0401,2.0414,2.0402,2.04,2.042,2.0413,2.0431,2.0426,2.0436,2.0409,2.0419,2.0407,2.041,2.0385,2.0387,2.0301,2.029,2.0375,2.0374,2.0374,0,2.035,2.0337,2.0352,2.0348,2.0353,2.0347,2.0345,2.0369,2.0366,2.0372,2.0361,2.0357,2.0354,2.0342,2.0355,2.0352,2.0361,2.0331,2.0361,2.0355,2.0361,2.0362,2.0361,2.0325,2.0324,2.0323,2.0322,0,2.0276,2.0286,2.0284,2.0284,2.0282,2.0283,2.0286,2.0281,2.0306,2.0301,2.0295,2.0294,2.029,2.0285,2.0285,2.029,2.031,2.0313,2.0307,2.0301,2.0295,2.0298,2.0391,2.0315,2.0315,2.0316,2.0316,2.0317,2.0219,2.0209,2.0218,2.0214,2.0219,2.0221,2.0213,2.0225,2.0221,2.022,2.0234,2.0225,2.0232,2.0234,2.0237,2.023,2.0244,2.0235,2.0233,2.0231,2.0227,2.0296,2.023,2.023,2.023,2.0231,2.0231,0,2.0146,2.0154,2.015,2.0154,2.0151,2.0171,2.0176,2.0171,2.0164,2.0169,2.0166,2.0159,2.0155,2.0168,2.0165,2.0157,2.0166,2.0156,2.0156,2.0157,2.0215,2.022,2.0148,2.0148,2.0148,2.0148,2.0148,2.0148,2.0108,2.0092,2.0103,2.0089,2.0097,2.009,2.009,2.0092,2.0097,2.0088,2.0085,2.0094,2.0102,2.0101,2.0097,2.0101,2.0099,2.0085,2.0092,2.0145,2.0153,2.0161,2.0166,2.0084,2.0084,2.0036,2.0035,2.0035]}]]